This is the latest recevied weather packets stored in our database for station/object N0ZJT. If no packets are shown the sender has not sent any weather packets the latest 10 day(s).
| Time | Temp. | Humidity | Pressure | Rain* | Wind** | Luminosity | Snow |
|---|---|---|---|---|---|---|---|
| 1777466690 | 7.78° C | 62% | 979.1 hPa | 0 mm | - | - | - |
| 1777465730 | 7.78° C | 61% | 979 hPa | 0 mm | - | - | - |
| 1777464890 | 7.22° C | 61% | 979 hPa | 0 mm | - | - | - |
| 1777463930 | 7.22° C | 60% | 978.9 hPa | 0 mm | - | - | - |
| 1777463090 | 7.22° C | 60% | 978.8 hPa | 0 mm | - | - | - |
| 1777462130 | 7.22° C | 60% | 978.7 hPa | 0 mm | - | - | - |
| 1777461290 | 7.22° C | 60% | 978.6 hPa | 0 mm | - | - | - |
| 1777460330 | 7.22° C | 59% | 978.5 hPa | 0 mm | - | - | - |
| 1777459490 | 7.22° C | 58% | 978.6 hPa | 0 mm | - | - | - |
| 1777458530 | 7.22° C | 58% | 978.6 hPa | 0 mm | - | - | - |
| 1777457690 | 7.22° C | 59% | 978.6 hPa | 0 mm | - | - | - |
| 1777456730 | 7.22° C | 59% | 978.8 hPa | 0 mm | - | - | - |
| 1777455890 | 7.78° C | 60% | 978.5 hPa | 0 mm | - | - | - |
| 1777454930 | 7.78° C | 60% | 978.6 hPa | 0 mm | - | - | - |
| 1777454090 | 7.78° C | 60% | 978.6 hPa | 0 mm | - | - | - |
| 1777453130 | 8.33° C | 62% | 978.6 hPa | 0 mm | - | - | - |
| 1777452290 | 8.33° C | 63% | 978.4 hPa | 0 mm | - | - | - |
| 1777451330 | 8.33° C | 61% | 978.6 hPa | 0 mm | - | - | - |
| 1777450490 | 8.89° C | 64% | 978.6 hPa | 0 mm | - | - | - |
| 1777449530 | 8.89° C | 63% | 978.3 hPa | 0 mm | - | - | - |
| 1777448690 | 8.89° C | 62% | 978.2 hPa | 0 mm | - | - | - |
| 1777447730 | 8.89° C | 61% | 978 hPa | 0 mm | - | - | - |
| 1777446890 | 8.89° C | 61% | 977.7 hPa | 0 mm | - | - | - |
| 1777445930 | 8.89° C | 61% | 977.6 hPa | 0 mm | - | - | - |
| 1777445090 | 8.89° C | 62% | 977.7 hPa | 0 mm | - | - | - |
* Rain latest hour (hover to see other rain measurements)
** Current wind speed in m/s (hover to see current wind gust speed)